Wind_Speed
32 31 30 28 27 28 28 28 27 27 26 25 24 23 20 20 22 22 22 23 25 27 27 26 24 25 24 22 21 19 16 13 13 12 9 8 8 8 8 8 7 6 6 5 5 4 4 3 4 4 5 6 5 3 3 1 1 3 2 2 4 4 4 7 3 1 2 5 6 7 11 10 8 14 15 13 14 13 12 15 17 18 19 18 19
33 32 31 29 27 28 28 28 26 26 27 26 25 22 20 20 21 20 20 23 26 27 27 26 26 26 24 22 19 17 14 12 13 12 10 9 10 10 10 9 8 7 6 6 6 6 5 4 4 4 4 6 5 4 4 3 3 2 2 1 0 3 3 8 6 3 4 5 7 6 9 10 8 13 13 12 12 11 7 10 13 14 15 15 18
33 32 31 29 28 27 28 28 26 25 26 25 25 24 22 21 21 20 21 23 24 25 27 28 28 26 23 20 18 15 13 10 9 10 11 11 10 10 11 10 9 8 7 6 6 6 7 5 5 4 4 5 4 4 4 4 4 2 1 4 5 4 5 7 6 4 4 5 8 7 9 10 8 13 14 8 10 10 4 7 10 10 13 15 19
33 31 30 31 29 27 27 28 27 26 24 23 25 26 25 24 23 21 21 21 21 24 26 27 28 26 22 19 17 15 13 9 7 9 11 12 11 11 12 10 9 8 8 7 6 6 7 6 5 5 4 4 3 3 3 4 4 2 3 4 4 5 6 5 4 4 4 5 7 7 8 9 7 13 15 6 7 9 4 6 8 6 8 15 20
31 29 29 31 29 27 28 29 28 26 24 24 25 26 25 25 25 23 21 20 21 24 25 25 26 25 23 20 18 15 13 10 9 10 11 11 10 10 12 11 9 10 10 10 9 8 8 8 7 7 6 6 5 4 4 3 3 3 5 4 1 3 4 3 3 4 4 4 5 6 8 9 7 10 15 8 6 8 5 7 10 7 3 10 16
27 26 26 29 29 28 29 29 28 26 24 26 26 23 23 25 26 23 21 21 23 23 24 24 25 25 23 20 17 15 14 12 12 11 11 11 9 10 11 11 11 10 10 9 8 9 10 10 9 7 6 5 5 4 4 4 3 2 4 5 5 4 2 2 2 4 3 3 5 5 7 11 9 9 15 11 7 9 8 9 13 11 5 8 14
24 24 24 25 27 29 29 28 27 25 24 26 27 24 23 24 24 21 19 20 22 22 24 24 24 24 23 19 17 16 15 14 13 11 11 11 12 12 12 12 10 9 9 8 8 10 12 10 8 5 3 3 3 3 3 4 4 4 4 5 6 5 2 1 4 3 4 4 4 4 6 10 9 9 14 11 7 8 10 12 15 15 11 12 15
22 23 24 25 26 27 27 26 25 25 25 27 27 25 23 22 21 20 20 21 22 23 26 26 25 25 22 18 18 17 15 13 12 11 13 12 13 13 12 12 10 9 9 8 9 12 11 7 4 4 3 3 3 3 3 2 3 3 3 4 5 5 3 3 6 3 3 2 2 4 6 7 8 9 12 12 10 8 11 13 16 16 14 13 15
23 23 25 25 23 22 23 24 23 25 26 26 25 23 21 20 21 21 21 22 23 25 27 27 26 25 21 19 19 17 14 12 12 14 14 13 13 13 12 12 10 10 9 8 9 11 8 4 4 4 4 4 4 4 3 3 3 3 3 2 2 5 6 6 7 5 1 2 0 3 5 6 8 9 11 15 12 8 11 14 14 15 14 15 15
24 22 23 23 23 21 22 22 22 24 26 25 23 21 20 20 21 20 20 23 25 27 28 27 25 24 22 19 18 16 13 11 13 15 14 14 14 13 12 13 11 10 9 7 9 9 4 3 5 4 4 4 5 4 4 3 3 3 3 2 1 3 4 5 6 7 3 2 2 2 3 6 9 9 11 15 12 8 11 12 13 15 17 19 19
24 22 21 21 22 22 21 21 22 23 24 25 24 21 20 21 21 19 19 22 25 26 27 26 25 23 21 19 17 15 13 13 14 15 16 17 16 13 13 14 12 10 8 8 9 8 3 4 5 4 4 5 5 5 4 4 4 3 3 3 2 2 1 2 3 4 3 0 2 2 2 4 8 9 10 13 13 12 12 11 11 15 18 21 21
23 22 21 21 22 22 22 21 21 21 22 24 25 22 20 20 20 18 19 21 23 25 26 26 25 23 20 19 18 16 15 15 15 16 19 19 16 13 13 12 11 11 10 9 10 8 2 4 6 6 6 5 5 5 4 4 4 4 3 3 4 3 2 2 1 2 2 1 2 3 4 4 7 9 10 11 13 13 13 12 11 13 17 19 19
24 21 21 21 22 23 23 22 21 21 20 22 23 21 20 20 19 18 19 20 23 26 26 25 24 22 21 19 19 18 18 17 17 17 19 20 17 14 11 9 10 11 10 10 9 5 2 4 6 6 7 6 6 6 6 5 4 4 3 4 5 4 3 3 3 2 2 3 4 6 7 6 8 10 11 10 10 10 12 12 10 11 16 17 15
24 21 21 22 22 23 24 23 23 22 21 21 22 21 20 20 19 19 19 20 24 27 27 26 24 22 20 20 19 19 18 18 19 19 20 21 19 14 11 10 11 11 11 9 9 8 8 7 5 5 6 7 7 7 6 6 4 3 3 4 5 5 5 5 5 5 5 6 7 8 9 9 10 12 11 9 9 9 10 11 10 10 13 14 12
23 21 21 22 22 22 22 23 23 22 21 22 22 22 21 19 18 19 20 22 26 28 28 26 24 22 20 20 20 20 19 19 20 21 22 23 21 16 14 13 12 11 12 11 10 10 9 5 5 7 8 9 8 6 5 6 4 2 2 3 5 5 6 7 6 7 7 8 9 10 10 11 12 12 10 9 9 10 10 9 7 6 6 8 8
21 22 21 22 23 22 22 23 22 21 22 22 22 22 21 19 19 19 21 25 27 28 27 26 25 22 20 20 20 20 20 19 20 22 23 24 22 17 15 14 14 13 13 12 10 10 7 6 9 11 10 9 10 8 6 6 5 2 2 2 3 4 6 7 7 8 8 9 11 11 11 11 12 13 10 8 9 10 9 7 4 3 4 5 5
21 21 20 21 22 21 21 22 22 21 22 22 22 22 21 21 20 20 23 27 29 27 26 27 25 21 19 20 20 20 20 20 21 23 25 26 23 17 14 14 14 14 13 12 11 11 11 11 14 13 10 9 11 10 8 7 7 3 1 1 1 2 3 5 7 9 10 10 11 12 13 12 13 14 13 10 10 11 10 8 7 6 8 9 6
21 20 19 19 20 20 21 22 22 22 22 21 21 22 23 23 24 24 25 28 29 29 28 27 23 20 19 20 21 20 19 19 22 24 25 25 22 17 14 14 15 14 13 13 14 15 14 14 14 12 10 10 11 10 9 8 8 6 3 2 2 2 3 4 6 8 10 11 11 11 13 13 12 14 15 13 11 11 11 11 11 11 12 13 11
21 19 19 20 20 20 22 23 23 22 21 20 20 22 24 26 28 28 29 29 30 30 28 26 23 21 21 21 21 19 18 20 23 26 26 26 22 19 16 14 15 16 14 13 14 15 14 15 15 11 9 10 10 10 9 8 8 9 7 5 4 3 4 8 8 8 9 12 12 10 11 12 11 12 15 14 13 12 12 11 13 14 15 17 16
22 20 21 22 21 21 23 24 21 19 19 19 20 22 26 28 29 29 31 31 31 30 28 26 24 22 21 21 21 20 19 22 26 28 29 28 24 21 19 17 17 17 15 14 15 15 14 18 18 12 9 10 10 9 8 6 6 8 9 7 6 5 3 8 9 9 8 11 11 9 10 12 10 10 13 14 13 13 12 11 12 15 18 20 21
21 20 22 24 23 23 24 23 20 19 19 20 21 23 25 27 28 30 32 33 33 31 29 26 23 20 20 21 22 19 20 23 27 29 30 30 25 22 20 19 18 16 14 16 18 17 15 18 19 15 10 9 9 8 7 5 5 6 6 7 6 4 4 8 10 9 7 6 5 4 5 8 8 7 8 9 10 10 12 12 13 13 16 20 23
19 20 21 22 22 21 22 21 20 21 21 21 22 22 23 26 28 31 35 37 35 31 27 24 21 20 21 22 22 19 19 23 28 30 30 30 26 23 21 20 18 17 16 18 18 16 15 15 17 16 11 8 8 8 7 5 5 5 5 5 6 6 7 8 8 7 4 1 1 1 1 2 4 3 3 5 7 8 9 13 16 14 13 18 21
14 16 16 17 19 20 21 21 21 21 21 21 21 23 24 26 29 32 36 38 35 31 27 25 24 24 23 21 21 21 21 24 28 29 30 29 26 24 23 21 19 18 17 16 15 15 15 13 13 13 11 9 8 7 7 6 5 6 7 7 7 8 8 7 6 4 2 1 3 4 3 2 4 5 3 5 9 10 8 11 16 17 15 16 20
10 12 13 14 17 18 19 21 22 23 23 22 22 25 27 28 31 34 36 34 32 30 28 26 26 26 23 21 21 23 24 27 29 27 28 29 27 26 24 21 20 19 17 16 16 17 15 13 11 10 8 8 7 6 6 6 6 8 8 8 9 9 7 5 4 3 2 2 3 4 5 6 7 8 8 7 9 11 9 9 12 15 14 15 17
12 14 15 16 16 16 16 18 21 23 24 23 24 26 28 30 33 34 32 30 28 29 28 26 26 26 25 24 25 24 25 30 30 28 29 30 28 27 24 22 22 20 18 18 19 17 15 15 13 10 8 7 7 6 5 6 8 9 10 9 9 8 7 4 2 2 2 3 3 3 5 7 9 10 11 9 8 10 9 7 8 11 12 13 15
14 15 15 15 15 15 15 17 20 22 23 23 24 25 26 30 35 34 30 28 28 28 28 27 26 25 24 24 25 24 25 28 28 29 32 31 29 27 24 23 23 22 19 19 19 16 15 15 13 10 9 7 6 6 6 8 8 8 8 7 6 5 4 3 3 3 2 3 2 3 4 6 8 10 10 9 9 10 11 9 8 9 11 12 12
15 16 15 14 13 14 14 15 18 21 22 22 23 24 27 31 34 33 30 30 30 30 30 28 26 25 23 22 22 23 23 25 28 32 33 30 27 26 24 24 25 23 19 19 19 17 16 13 10 9 8 5 5 5 7 9 8 6 5 5 8 5 2 3 3 4 2 1 2 2 3 4 7 8 8 9 10 12 13 12 10 10 11 11 10
14 15 15 14 14 14 14 13 15 17 18 19 21 25 29 32 33 32 31 31 33 33 31 29 26 25 24 24 23 23 24 27 31 34 32 28 27 26 24 25 26 23 20 21 20 18 16 12 8 7 6 5 6 7 8 8 7 6 5 4 7 8 5 5 3 1 1 2 2 3 1 3 5 5 5 6 7 9 13 13 12 12 12 10 10
13 14 14 14 15 14 13 14 14 14 15 18 21 25 30 33 32 32 32 31 32 33 31 28 25 24 25 26 25 24 25 28 29 28 26 27 28 26 25 24 24 23 22 21 18 16 14 10 8 8 7 6 7 7 6 5 5 4 3 2 1 3 5 4 2 5 4 1 2 3 1 3 4 4 5 6 3 5 11 12 10 12 12 10 11
13 14 13 13 13 12 12 14 15 14 15 18 22 26 31 32 31 32 33 31 31 31 28 25 24 24 26 26 24 21 19 19 21 21 22 24 26 26 24 22 22 23 22 18 14 12 11 9 8 7 7 6 5 4 3 4 3 1 1 3 5 2 1 1 6 7 5 2 2 3 1 2 4 4 5 6 5 6 9 9 8 10 12 10 11
14 14 14 13 12 11 12 13 15 16 17 20 24 28 31 31 30 30 31 29 28 28 25 23 22 23 24 24 22 17 13 13 16 17 17 19 22 22 21 21 23 21 18 14 11 10 8 7 6 5 4 3 2 2 3 4 4 3 1 2 4 3 2 5 7 4 3 3 6 5 2 2 5 5 5 6 7 7 8 8 8 9 10 9 10
15 15 14 13 13 12 12 13 15 16 18 21 25 28 32 33 31 29 27 26 24 24 24 23 22 21 21 20 17 14 13 13 13 13 14 18 20 18 17 20 21 17 13 12 12 10 7 6 5 4 3 5 7 8 7 5 5 4 3 3 3 2 3 6 7 4 2 4 5 5 5 4 5 6 6 6 7 8 8 8 9 10 10 9 10
14 13 12 11 12 13 13 13 15 17 18 21 25 28 31 33 33 30 27 24 23 23 23 23 21 20 18 16 13 10 10 11 11 12 15 18 19 17 18 20 17 13 13 13 12 11 9 7 6 6 6 7 8 8 6 3 3 4 3 2 1 3 4 3 4 3 3 4 3 4 7 7 5 6 6 5 5 7 9 10 10 10 10 11 12
9 8 8 9 10 12 13 14 15 17 19 21 24 27 30 31 32 32 30 26 24 24 23 21 19 17 16 15 12 9 9 10 11 14 18 19 18 17 18 17 14 14 14 13 13 12 9 6 6 7 7 6 6 6 6 4 5 5 3 2 1 3 3 2 2 2 3 3 2 6 9 7 5 7 7 5 5 7 8 9 10 10 12 14 16
4 5 6 6 8 10 13 14 15 17 19 20 22 25 27 28 29 29 27 25 25 25 22 20 18 15 14 15 13 10 9 10 11 14 18 18 17 15 15 14 15 16 15 13 13 11 7 7 8 7 7 6 6 7 7 5 4 4 4 4 3 2 2 1 2 5 5 2 3 7 8 7 7 9 10 8 7 9 9 9 11 13 14 17 16
4 5 5 5 6 9 11 13 15 16 18 19 21 23 24 25 25 25 24 24 26 27 25 23 20 16 15 15 14 11 10 11 12 13 14 15 13 12 12 13 17 18 15 12 11 8 5 6 7 6 6 6 5 5 6 6 5 6 6 5 4 3 4 5 5 8 7 3 3 6 9 10 11 12 12 10 9 10 10 10 12 15 16 16 14
4 5 6 7 7 9 11 13 14 15 16 18 20 23 24 23 24 24 25 26 28 27 25 23 21 19 18 16 15 14 13 13 13 13 13 12 11 10 11 12 15 15 12 9 9 7 6 6 6 6 6 5 5 5 7 6 6 7 7 5 5 5 6 6 6 6 5 5 6 7 8 9 8 8 8 8 9 10 11 11 14 16 16 15 14
4 4 5 6 9 11 12 13 14 15 17 19 21 23 24 24 24 25 26 27 26 24 24 23 22 20 20 19 17 16 15 14 14 13 12 12 12 13 15 14 12 9 7 6 7 8 7 6 6 7 6 6 6 6 6 5 4 3 4 4 4 4 3 2 4 5 6 5 4 4 5 6 7 7 8 8 9 10 11 13 14 15 15 14 15
4 4 5 6 8 11 12 13 14 16 17 18 19 20 21 23 24 25 25 25 25 24 24 22 20 19 19 20 20 18 16 15 14 13 13 14 15 16 14 11 7 5 5 6 6 7 7 7 7 7 7 6 6 4 4 4 4 3 4 3 2 3 3 3 4 4 3 4 5 5 6 7 9 9 9 9 9 10 12 13 13 14 14 14 15
5 5 6 7 8 11 13 14 15 16 16 17 17 18 18 20 22 23 23 23 23 22 21 20 20 19 20 20 19 17 14 13 12 13 16 18 18 15 11 8 7 7 7 7 7 6 6 8 8 7 7 6 5 5 5 5 4 3 3 2 0 1 3 5 4 2 4 6 6 6 7 9 10 10 9 9 11 12 13 14 15 14 15 16 17
5 5 6 8 10 14 16 16 16 16 16 16 16 16 16 17 18 19 19 19 19 19 19 19 19 19 19 17 14 11 9 9 10 14 19 19 17 14 10 7 8 9 8 8 8 8 7 7 7 7 8 8 7 7 6 5 4 4 3 2 3 3 1 1 1 2 4 5 6 5 6 9 10 10 9 9 11 13 13 14 15 15 16 17 18
6 8 11 12 14 16 17 17 17 17 16 15 14 13 14 15 15 15 15 15 16 17 17 16 17 16 14 11 9 8 9 9 8 12 18 18 16 14 9 9 11 11 10 10 11 10 9 9 9 9 9 10 9 8 6 6 6 6 5 4 5 6 5 4 5 6 7 7 7 7 8 10 11 11 10 11 12 13 13 14 15 15 17 18 18
9 12 15 17 17 17 17 16 17 16 14 12 12 11 12 13 14 14 14 14 15 16 15 15 14 13 12 11 12 13 13 11 8 9 15 17 13 9 9 13 14 13 12 12 12 11 11 10 9 8 8 8 7 7 8 8 7 6 5 4 5 5 4 4 6 7 8 8 8 9 10 11 13 14 15 16 17 18 18 19 19 21 21 22 22
11 15 18 18 17 17 17 16 16 15 14 12 12 13 13 14 15 16 16 16 16 15 15 15 15 15 17 18 16 14 13 13 11 10 13 14 11 10 13 16 15 13 12 11 11 11 11 10 9 7 7 7 7 7 8 7 5 5 6 6 6 5 6 6 6 7 7 8 10 11 13 15 17 18 20 21 21 21 21 21 21 22 22 22 23
10 13 17 19 19 18 18 16 15 15 16 17 17 16 15 16 17 18 18 18 17 15 14 16 18 21 21 18 14 11 13 16 16 13 12 13 14 14 15 16 15 14 12 12 11 10 9 8 8 7 7 7 6 5 5 5 3 3 3 4 5 6 6 7 8 9 11 12 14 16 18 19 20 21 22 21 20 20 20 20 20 21 21 22 23
10 11 15 19 19 18 18 17 15 15 16 18 19 18 17 17 19 20 19 18 17 15 14 17 22 23 20 16 13 14 17 19 17 15 14 15 16 15 14 13 13 13 12 11 10 8 7 6 6 5 5 5 5 4 4 3 2 1 2 3 4 6 8 9 11 13 15 17 19 20 20 20 20 19 19 19 19 20 20 21 21 21 22 22 22
10 12 16 20 20 18 17 16 14 13 14 16 17 19 19 20 20 20 18 17 16 16 17 20 24 24 20 17 16 16 17 17 17 16 14 14 14 14 12 11 10 9 9 8 7 6 5 4 2 2 2 2 2 2 2 2 2 3 4 6 8 10 12 14 15 17 18 19 19 19 19 18 18 18 19 20 21 21 21 21 22 22 22 22 22
10 13 18 22 21 18 17 17 15 14 15 16 17 18 19 20 18 17 16 15 15 16 19 22 23 22 20 17 15 15 15 16 16 16 14 13 13 12 11 9 7 6 5 4 3 2 1 0 1 2 2 2 2 2 2 3 4 6 8 10 12 14 15 16 17 17 17 17 17 17 18 18 18 19 21 21 22 22 22 22 23 23 22 22 21
12 14 19 21 20 18 17 17 16 15 15 17 17 18 19 19 18 16 16 15 14 15 19 21 20 19 18 15 13 13 14 15 15 15 13 13 12 11 9 7 6 5 4 3 3 2 2 2 2 2 2 2 3 4 5 7 9 10 12 14 15 16 16 16 16 16 16 16 17 18 19 19 19 20 21 21 21 22 22 21 21 21 20 20 20
14 16 18 19 18 17 16 16 15 15 14 15 17 18 19 19 17 16 16 15 13 15 18 20 19 17 16 15 14 15 16 16 16 15 14 13 12 10 8 7 6 5 3 3 3 2 2 1 1 2 3 5 6 7 9 11 12 13 14 15 15 15 15 15 16 16 17 18 19 19 20 20 20 20 20 20 19 20 20 20 20 19 19 19 19
12 13 15 16 16 15 15 15 14 14 15 16 17 17 17 17 16 15 15 15 15 17 19 20 19 17 16 16 17 18 18 17 16 15 14 13 11 9 8 7 5 3 2 2 1 1 1 2 3 4 6 7 9 10 11 12 13 13 14 13 13 14 15 16 17 18 19 20 20 19 19 19 19 19 19 18 18 18 19 19 19 19 19 20 20
Wind_Direction
203 207 210 210 213 212 210 210 212 214 215 215 213 212 210 202 190 186 184 182 189 193 188 186 191 196 201 205 210 218 223 215 202 204 210 196 182 179 172 169 178 177 159 161 169 160 159 180 198 182 174 197 214 227 256 225 124 330 21 160 297 324 139 138 125 25 5 346 342 326 323 347 355 332 355 39 31 25 22 4 5 5 1 3 352
202 209 212 209 210 211 208 208 210 212 213 214 213 212 208 197 189 191 191 185 187 191 191 189 191 196 201 203 208 217 221 212 200 200 198 183 185 187 170 166 180 175 162 169 177 176 181 200 219 216 205 208 217 232 233 182 160 258 304 150 358 1 108 132 124 67 37 351 334 324 329 354 4 336 355 47 33 12 25 20 14 6 358 353 338
203 209 211 208 209 210 208 210 211 211 212 214 214 211 205 198 196 196 192 189 189 189 188 187 187 191 199 200 202 206 206 207 208 207 198 184 188 185 164 169 189 179 166 178 193 198 204 221 231 226 224 222 226 232 214 179 170 213 359 48 53 67 93 102 94 57 35 347 331 336 351 9 8 333 340 40 32 356 4 46 30 9 358 351 339
202 206 208 207 208 208 208 211 213 210 207 207 206 205 201 200 201 198 195 193 191 187 186 187 186 189 197 197 193 195 199 213 233 225 205 189 187 179 166 176 186 168 166 184 193 202 210 220 228 226 224 221 221 210 182 175 181 169 99 60 31 48 64 60 57 35 16 347 343 352 357 5 4 335 334 12 32 0 14 49 25 6 9 6 352
200 203 205 206 207 207 206 210 213 209 202 197 196 197 196 197 199 198 200 200 196 190 188 190 189 191 198 196 189 196 209 231 255 243 208 188 184 174 166 172 176 170 181 193 195 206 214 217 224 229 227 215 202 185 166 164 178 161 135 139 125 47 39 28 58 39 8 2 10 3 341 339 348 335 332 350 23 6 25 39 7 344 10 21 2
195 197 200 203 206 205 204 210 214 210 202 193 191 193 192 192 194 197 203 206 202 198 195 194 192 194 198 195 194 209 224 241 257 242 202 179 174 169 165 172 179 179 186 197 208 220 225 227 233 238 235 219 203 187 172 166 168 162 153 159 142 99 47 349 52 37 17 33 25 5 328 330 344 340 333 346 13 359 11 28 7 355 12 26 6
188 191 194 198 202 205 206 210 211 206 200 194 194 198 197 192 192 197 207 211 208 206 203 196 191 195 200 199 206 221 230 243 250 224 190 172 170 173 173 176 178 173 175 190 213 229 234 237 244 254 251 214 196 198 192 181 172 160 167 173 139 114 125 130 85 42 13 44 29 349 326 333 350 346 334 351 19 4 14 22 5 2 20 25 7
184 189 193 195 199 204 206 208 206 200 196 197 200 202 199 195 195 199 209 212 208 207 203 194 190 195 200 204 218 228 234 246 242 203 181 172 172 178 178 174 172 171 177 192 217 235 246 254 250 235 216 186 179 185 187 191 179 157 166 182 148 132 150 125 102 72 343 21 47 343 331 339 350 340 340 5 22 19 30 25 2 359 15 26 10
184 188 192 193 193 195 197 198 198 195 194 197 199 196 193 194 196 200 208 209 204 202 199 193 192 197 201 207 221 230 236 244 227 195 179 169 175 184 179 173 177 179 178 189 226 245 255 250 221 204 193 184 175 173 173 169 161 149 156 189 153 145 156 148 128 124 316 294 82 355 342 346 345 341 357 15 16 20 34 25 5 2 13 19 12
186 188 191 193 189 186 188 191 191 193 195 196 196 194 195 197 196 198 204 205 200 197 195 194 196 199 202 207 218 226 232 232 216 195 173 165 183 193 179 175 188 190 176 183 228 252 257 201 199 188 180 179 166 163 163 158 155 150 148 140 126 151 160 163 155 147 156 264 275 2 5 352 343 346 6 14 13 23 34 26 13 12 13 10 6
185 187 187 190 188 184 186 188 190 195 198 197 199 199 199 199 198 199 203 203 198 192 190 193 197 199 201 206 214 221 223 220 210 189 168 172 192 195 180 180 187 189 181 188 225 252 250 181 188 169 161 163 155 154 151 148 148 142 136 122 111 122 124 128 163 170 163 205 327 350 15 350 340 350 7 14 20 29 36 33 17 11 10 4 357
182 184 183 184 184 183 185 187 189 192 192 194 199 200 197 196 197 200 204 203 197 192 191 195 198 198 199 204 212 222 223 218 209 190 174 179 192 190 184 186 182 183 187 193 223 257 270 182 186 170 156 145 134 133 131 136 142 132 126 112 99 93 77 76 101 186 171 99 13 9 26 356 341 354 7 16 28 35 39 38 22 13 14 6 351
179 181 181 180 181 183 186 187 187 187 187 189 195 197 195 193 195 200 203 201 198 197 196 196 196 196 199 205 214 222 222 216 210 197 182 182 189 183 178 184 183 185 192 196 212 237 226 207 205 178 161 153 142 134 125 123 124 121 122 112 97 89 77 70 70 79 85 62 35 25 27 13 357 2 8 14 25 29 29 32 29 24 22 12 352
178 178 179 180 183 186 186 185 187 189 190 192 195 198 200 198 197 201 202 198 197 196 194 194 196 198 202 210 218 222 222 216 210 201 189 189 190 176 166 184 193 189 191 197 202 203 206 217 206 160 166 179 174 162 146 131 117 110 116 102 84 72 69 66 60 56 51 50 46 36 33 29 17 9 6 8 17 13 11 17 20 21 25 18 352
177 178 179 181 185 186 182 181 187 192 194 196 199 202 205 203 200 202 201 195 192 193 196 200 202 203 207 215 221 224 223 217 208 200 197 197 191 172 167 185 194 191 190 193 201 208 211 205 172 172 186 193 192 188 166 142 119 62 30 65 71 59 50 49 52 53 49 50 51 46 43 38 26 15 7 6 12 7 3 8 360 350 17 22 349
176 179 179 182 184 182 177 177 183 191 194 196 198 201 202 202 202 201 195 190 190 195 202 208 210 210 210 217 224 227 223 215 205 199 200 201 192 175 172 182 188 193 192 185 193 205 197 185 198 206 205 197 196 198 181 150 131 97 339 7 58 51 42 44 49 50 48 50 51 49 47 40 28 24 21 16 17 14 12 15 355 313 357 19 2
176 176 178 184 183 179 178 179 182 189 194 194 195 198 199 200 201 200 194 191 195 201 205 209 214 215 213 221 229 226 219 213 205 199 200 199 189 173 172 182 186 191 190 180 187 196 189 197 217 221 214 207 201 195 181 154 143 162 236 70 75 7 19 52 61 55 50 48 46 42 39 32 23 23 27 28 29 27 24 28 33 30 25 22 22
175 172 173 178 177 176 180 183 186 191 194 193 192 195 197 198 201 202 200 196 198 203 206 208 210 212 215 227 232 225 219 215 206 200 198 194 183 168 171 186 188 190 190 185 193 200 197 207 221 217 204 205 199 190 183 166 156 169 172 142 191 280 8 46 55 54 48 41 41 36 27 23 16 14 20 28 35 36 32 34 39 41 38 30 20
173 173 175 177 176 176 182 188 192 196 195 191 189 192 195 198 201 204 204 201 200 203 206 208 211 215 219 229 230 222 219 214 202 196 194 189 179 167 170 185 193 193 191 189 202 211 207 212 222 215 196 199 198 191 192 186 177 176 166 166 218 229 76 56 38 36 36 31 34 28 13 12 13 7 10 18 29 36 38 42 43 41 43 41 31
171 172 175 178 176 178 186 193 197 198 194 187 187 192 195 198 202 205 205 203 203 205 207 211 218 220 218 223 225 219 215 207 195 190 190 187 181 174 172 181 194 199 191 187 206 220 214 213 222 220 199 199 203 200 201 201 198 190 174 176 212 220 110 69 51 47 35 22 25 20 0 359 8 10 6 5 12 25 33 43 50 47 46 43 35
173 176 178 177 178 183 190 195 197 197 194 187 186 193 197 200 204 206 203 201 203 206 209 214 221 216 207 212 219 220 215 203 190 186 188 188 186 181 176 179 191 199 193 190 206 221 220 216 221 223 214 205 204 208 204 189 190 196 182 177 191 184 106 77 65 62 51 26 18 18 358 353 2 15 6 348 350 8 19 28 36 41 44 40 31
178 184 185 183 184 190 195 196 197 200 200 197 196 198 201 204 209 209 204 202 202 204 207 212 213 204 199 206 215 221 216 199 188 186 189 190 187 182 177 179 187 194 197 200 208 220 227 225 223 225 226 217 210 210 200 181 180 175 156 152 151 126 104 92 80 72 69 36 307 318 9 352 339 348 346 334 347 359 6 16 21 19 24 29 23
178 183 188 191 194 198 201 203 207 211 213 214 214 213 212 211 211 209 205 204 203 200 203 208 204 198 198 202 210 221 216 196 187 189 190 190 188 181 179 181 184 189 199 205 209 215 221 221 218 222 226 222 217 207 186 174 168 148 134 127 115 102 95 92 87 83 86 30 350 347 357 350 328 332 347 2 9 9 360 5 14 13 11 14 10
178 177 182 190 193 195 200 204 209 215 219 220 219 216 214 211 209 206 203 202 200 196 197 202 198 195 197 196 203 220 215 194 187 189 190 188 186 183 182 183 184 188 194 200 208 214 216 218 222 228 229 223 216 201 179 165 148 131 122 115 104 91 79 74 71 65 67 49 13 353 346 346 348 3 26 28 9 2 3 6 7 8 10 8 1
181 180 182 188 192 195 199 204 208 213 218 220 218 215 212 207 204 202 199 197 194 190 192 195 194 195 198 196 201 212 204 188 184 186 186 186 185 185 185 184 184 187 189 198 210 215 216 224 234 238 234 223 206 184 161 148 139 130 123 117 107 94 81 74 72 59 48 34 17 3 346 340 349 8 26 29 4 350 3 22 15 6 9 7 358
186 188 190 193 197 203 208 212 215 216 219 223 223 220 214 206 201 199 196 192 187 184 187 189 188 188 193 199 204 205 194 185 183 183 184 186 187 187 186 184 185 190 193 201 211 216 218 228 238 237 227 214 192 174 153 135 130 134 133 114 91 102 131 146 147 122 67 26 12 10 348 335 347 4 8 3 356 355 3 18 20 10 11 10 359
190 193 195 198 207 217 222 223 223 221 221 224 225 221 212 203 199 197 194 189 185 184 186 187 183 182 187 197 205 205 195 186 184 183 183 186 187 187 187 186 188 192 196 200 209 220 229 237 240 228 215 195 173 164 142 127 116 112 113 67 35 44 140 159 141 138 118 56 345 339 356 349 348 359 358 343 345 355 358 6 19 17 14 15 4
197 198 201 208 218 227 232 233 231 227 224 223 221 215 205 199 196 195 192 189 186 185 187 188 187 187 190 194 196 197 191 186 185 185 185 187 190 191 190 189 191 196 201 204 210 221 231 237 231 211 192 169 151 135 125 126 111 87 88 48 9 14 41 60 69 167 172 74 358 321 6 23 350 349 350 331 333 349 346 350 11 17 12 12 4
215 213 214 220 222 223 229 234 235 233 228 221 216 209 201 197 197 195 192 190 189 189 189 190 190 190 192 191 192 192 189 185 187 190 190 191 196 197 195 196 199 201 204 207 214 225 229 226 212 185 163 149 137 119 99 93 89 82 108 161 289 5 42 53 328 286 275 126 38 332 353 39 360 338 335 333 356 17 348 343 3 9 2 3 357
232 231 229 230 228 225 229 234 233 232 228 220 214 208 201 197 197 196 194 192 192 193 194 194 195 196 195 193 195 200 199 193 193 195 194 196 202 207 207 207 204 205 210 215 217 217 211 195 176 155 135 112 95 87 66 70 92 269 275 162 179 194 92 249 278 305 331 4 340 322 339 39 355 331 338 355 26 32 358 351 12 7 354 353 349
224 228 227 227 230 231 234 235 230 225 221 218 215 210 202 196 194 195 196 194 192 193 197 200 203 204 203 199 196 195 200 206 204 198 194 196 205 213 214 208 204 207 214 209 190 178 170 158 143 125 113 106 111 156 181 184 196 222 249 158 207 218 198 236 267 317 4 315 303 316 345 9 343 339 356 7 10 8 354 353 10 5 350 345 344
214 221 224 224 224 225 228 230 225 218 214 214 214 212 206 198 192 190 192 194 193 193 196 199 201 201 202 203 197 186 188 199 201 196 194 196 200 203 198 194 198 202 195 177 159 147 146 154 156 157 177 198 198 191 190 204 211 202 195 223 253 236 211 250 273 280 258 277 309 338 344 340 345 357 3 1 357 355 349 349 357 354 344 337 336
220 225 230 230 226 222 222 223 219 214 212 212 212 212 209 203 196 190 188 190 190 188 186 186 189 189 190 194 197 191 185 182 179 183 189 191 191 187 179 181 189 188 173 162 151 144 149 160 168 179 195 209 207 195 184 183 187 187 203 251 284 237 237 280 333 329 324 1 12 321 310 319 343 352 342 338 351 353 352 354 351 340 330 328 332
226 225 232 237 234 226 221 219 215 211 211 211 211 209 207 206 203 196 187 180 177 174 170 170 174 180 183 185 185 178 166 161 166 180 188 189 188 186 183 184 183 172 163 157 145 139 147 164 173 182 192 200 198 180 163 164 183 185 178 160 195 261 288 3 37 285 312 10 345 295 306 325 349 344 334 340 1 358 354 350 336 320 319 326 332
209 210 221 230 231 225 219 216 213 210 209 209 210 209 206 204 202 197 188 179 173 170 169 170 172 174 176 175 169 158 156 166 174 182 189 193 192 189 188 184 172 160 155 152 142 134 145 171 175 179 181 181 184 177 167 169 181 173 167 180 195 269 312 245 240 280 295 286 284 313 338 359 4 358 1 11 6 350 344 338 323 316 324 332 335
206 210 210 208 215 219 215 211 209 208 207 205 206 206 204 199 196 193 188 182 178 176 177 178 175 169 166 168 167 163 166 175 180 180 186 193 194 191 189 182 170 161 153 141 132 130 149 168 168 177 185 183 188 183 166 163 171 172 173 182 189 202 226 242 284 317 325 317 322 350 4 9 4 1 5 6 349 335 335 330 319 320 330 337 342
206 208 208 201 200 203 203 202 202 202 200 197 196 195 193 189 187 185 182 180 179 179 179 178 174 168 165 168 172 171 168 172 177 175 175 181 183 173 163 162 163 159 145 125 124 139 156 160 160 167 169 161 156 160 161 173 198 199 187 187 206 225 242 264 298 327 354 25 29 17 7 0 352 346 342 334 327 331 332 320 313 320 333 343 348
177 188 199 195 193 194 194 193 190 187 186 186 186 187 185 183 182 182 180 178 180 181 180 179 178 177 174 172 171 170 169 172 175 170 164 168 164 147 137 137 143 143 134 136 152 156 150 145 150 155 158 159 163 169 173 181 201 196 167 179 224 260 287 325 356 18 32 31 10 349 334 319 309 309 312 313 320 325 318 308 313 330 345 351 348
144 160 176 182 186 187 180 174 172 173 175 177 179 182 183 181 181 182 182 182 183 183 183 183 184 186 184 178 173 171 172 174 174 168 161 159 151 140 132 131 136 149 162 164 161 156 156 157 154 150 155 163 163 159 163 167 166 161 164 182 245 322 359 19 19 14 349 308 297 301 309 308 308 314 317 318 321 321 317 322 336 347 346 340 332
130 147 167 174 173 166 158 155 159 162 165 168 171 176 177 177 179 181 183 184 185 187 188 189 188 187 186 182 178 175 175 176 175 166 157 150 140 129 118 114 131 154 162 148 133 136 155 166 167 165 163 159 149 150 162 168 168 179 197 200 146 11 359 3 6 307 268 295 319 326 319 316 322 332 340 341 339 338 339 341 341 335 326 323 323
136 142 156 161 159 154 150 149 151 153 154 157 161 165 168 170 174 177 179 183 186 188 189 190 187 184 182 180 178 177 176 177 172 163 156 146 129 111 102 115 138 146 145 144 145 142 138 147 165 174 170 162 159 160 162 164 174 190 205 201 175 173 170 51 53 239 266 305 326 320 310 313 322 336 348 347 339 337 336 329 323 319 317 318 320
144 148 150 150 151 151 150 149 147 145 145 147 150 156 163 167 169 171 172 176 179 179 179 179 177 173 168 163 157 152 151 152 155 159 159 148 120 100 113 151 156 147 145 154 158 153 147 155 169 175 170 169 173 177 180 188 197 202 204 204 204 206 203 200 223 260 287 305 307 302 303 308 314 323 328 323 316 316 313 307 304 304 304 305 306
149 152 150 148 151 154 152 148 146 144 143 144 148 152 158 162 163 161 160 161 161 160 159 160 161 156 145 137 137 140 144 146 145 152 155 147 125 113 145 162 157 153 157 163 164 166 170 175 179 180 180 186 201 218 226 223 212 206 205 210 224 245 267 273 277 287 299 306 307 306 307 308 311 313 313 309 307 306 304 301 299 299 299 299 299
146 153 152 150 152 153 151 149 149 147 142 136 134 135 138 143 145 144 145 148 150 149 145 145 148 146 141 141 142 142 148 157 158 149 147 150 151 153 157 156 156 161 165 166 171 181 188 192 196 203 211 221 233 240 242 240 230 221 226 236 252 279 304 313 310 310 312 312 310 308 308 308 307 306 305 306 307 306 305 304 304 304 304 303 303
131 150 157 156 151 150 153 155 155 149 140 131 127 127 131 136 138 138 140 145 149 145 138 140 148 148 142 136 131 128 137 149 153 151 156 168 172 167 159 158 163 168 168 168 175 183 189 199 214 227 241 253 264 269 272 280 286 270 255 258 272 292 311 318 315 314 312 309 307 306 306 306 306 306 308 310 311 311 311 313 313 312 312 312 312
125 140 155 158 154 155 161 163 158 151 147 143 141 142 146 149 150 149 151 155 158 155 148 147 149 147 137 126 126 139 148 154 156 159 166 173 175 173 172 173 176 179 182 185 189 194 200 214 231 251 267 276 291 308 318 325 334 334 318 312 308 308 310 308 306 306 305 305 306 307 307 307 310 312 314 315 315 315 316 317 317 316 316 316 316
143 149 158 161 160 162 166 164 158 155 157 157 156 155 156 157 158 158 158 160 160 158 154 151 151 149 144 139 141 150 159 166 170 169 169 171 175 178 183 187 189 193 198 200 202 210 218 226 247 288 304 315 332 343 346 349 338 320 311 309 305 303 302 303 304 305 306 307 309 310 311 315 318 318 317 317 317 318 318 318 317 318 318 318 317
143 155 162 163 163 165 166 163 160 162 162 161 162 163 162 161 161 159 158 156 155 155 156 156 157 159 159 157 155 156 161 168 173 172 169 170 175 179 183 186 185 184 183 181 175 177 177 64 18 10 8 6 356 334 318 312 304 300 300 300 300 302 304 306 307 309 310 312 315 317 318 320 320 318 317 319 320 320 319 319 319 320 321 320 319
137 149 159 164 168 170 168 164 164 165 162 161 165 169 168 167 166 166 167 167 164 162 161 162 163 165 166 165 164 162 161 163 169 172 172 173 175 177 178 175 167 155 143 124 96 74 56 23 358 342 329 313 299 295 296 296 295 297 299 301 303 306 308 310 313 316 317 318 320 321 321 321 321 320 322 323 322 321 322 323 323 325 326 325 325
148 151 158 166 171 173 169 165 165 167 167 169 173 174 173 174 177 179 180 179 171 162 161 164 165 166 164 160 157 155 157 162 167 170 171 171 173 174 171 164 155 144 127 100 73 57 43 11 321 295 288 287 286 287 290 291 295 299 302 305 308 312 314 317 320 321 320 321 323 324 324 324 324 324 325 326 326 326 328 330 331 331 332 331 330
165 166 168 170 172 172 169 167 169 173 177 180 179 174 170 170 172 171 168 163 155 150 153 157 157 154 151 151 153 158 163 167 166 164 164 167 167 166 163 159 154 145 130 102 71 34 341 304 288 284 285 286 288 291 294 298 301 305 308 312 316 319 321 323 324 323 323 325 327 328 327 328 329 330 332 333 335 335 336 336 335 334 334 334 334
Height
1462 1464 1465 1467 1470 1473 1477 1480 1482 1484 1486 1488 1491 1494 1496 1496 1498 1500 1503 1505 1506 1507 1509 1510 1511 1514 1516 1518 1518 1519 1520 1521 1521 1522 1523 1523 1524 1525 1526 1527 1527 1527 1527 1528 1529 1529 1529 1529 1529 1528 1528 1528 1528 1529 1528 1529 1529 1528 1528 1528 1528 1527 1527 1527 1528 1529 1529 1529 1529 1527 1525 1524 1522 1520 1519 1518 1517 1517 1517 1516 1514 1512 1510 1508 1506
1460 1462 1463 1466 1469 1472 1475 1478 1481 1483 1484 1487 1490 1493 1495 1496 1497 1500 1502 1504 1505 1506 1507 1508 1509 1512 1515 1516 1517 1518 1519 1520 1521 1521 1522 1523 1523 1524 1525 1527 1527 1527 1527 1528 1528 1529 1529 1528 1528 1528 1528 1528 1528 1528 1528 1528 1528 1528 1528 1528 1528 1527 1527 1527 1527 1528 1529 1528 1528 1527 1525 1523 1522 1520 1519 1518 1517 1517 1516 1516 1515 1513 1512 1510 1507
1459 1460 1462 1465 1467 1471 1474 1476 1479 1481 1482 1485 1488 1491 1493 1495 1497 1499 1501 1502 1504 1505 1506 1506 1509 1512 1514 1515 1516 1517 1518 1518 1519 1520 1520 1521 1522 1523 1525 1526 1527 1527 1527 1527 1527 1528 1528 1528 1528 1527 1527 1527 1527 1527 1527 1527 1528 1527 1527 1527 1527 1527 1527 1527 1527 1528 1528 1528 1527 1526 1524 1523 1522 1519 1518 1518 1517 1516 1515 1514 1514 1513 1511 1510 1507
1457 1459 1461 1464 1466 1469 1473 1475 1477 1479 1481 1483 1486 1489 1490 1492 1495 1498 1500 1501 1502 1503 1504 1505 1509 1512 1513 1514 1515 1516 1516 1517 1518 1518 1519 1520 1521 1522 1524 1526 1527 1527 1527 1527 1527 1527 1527 1527 1527 1526 1526 1526 1526 1526 1526 1527 1527 1527 1527 1527 1528 1528 1527 1527 1527 1527 1528 1527 1526 1525 1524 1523 1522 1519 1517 1517 1516 1515 1515 1513 1512 1511 1510 1508 1506
1455 1457 1460 1462 1464 1467 1470 1473 1475 1478 1480 1482 1485 1487 1489 1491 1494 1497 1499 1500 1501 1502 1503 1504 1508 1511 1512 1513 1514 1514 1514 1515 1516 1517 1517 1518 1520 1522 1524 1525 1526 1526 1526 1526 1526 1526 1526 1526 1526 1525 1525 1525 1525 1525 1526 1526 1526 1526 1527 1527 1527 1528 1527 1527 1527 1527 1527 1527 1526 1525 1524 1522 1521 1519 1517 1516 1515 1514 1513 1512 1511 1510 1508 1508 1506
1454 1456 1458 1460 1463 1465 1468 1471 1474 1476 1479 1481 1484 1486 1488 1490 1493 1496 1498 1499 1500 1501 1502 1503 1506 1510 1512 1512 1513 1512 1512 1513 1514 1515 1516 1518 1520 1521 1523 1525 1526 1526 1526 1526 1525 1525 1525 1525 1524 1524 1524 1525 1525 1525 1525 1526 1526 1526 1526 1526 1527 1527 1528 1528 1527 1527 1527 1526 1526 1525 1523 1521 1521 1519 1517 1516 1515 1513 1512 1511 1510 1508 1507 1507 1505
1453 1455 1457 1459 1461 1464 1466 1470 1473 1475 1478 1480 1483 1485 1487 1489 1492 1495 1497 1498 1499 1500 1501 1502 1505 1508 1510 1510 1511 1510 1511 1512 1513 1514 1515 1517 1519 1521 1523 1525 1525 1525 1525 1525 1524 1524 1524 1524 1524 1524 1524 1525 1525 1525 1525 1525 1526 1526 1526 1526 1526 1527 1528 1527 1527 1527 1527 1526 1526 1525 1523 1521 1520 1519 1517 1515 1514 1513 1511 1510 1509 1508 1507 1506 1505
1452 1454 1456 1458 1460 1462 1465 1468 1471 1474 1477 1479 1482 1484 1486 1489 1491 1493 1495 1496 1497 1499 1500 1501 1504 1506 1508 1508 1509 1509 1509 1511 1512 1513 1515 1517 1519 1521 1522 1524 1525 1525 1525 1525 1523 1522 1523 1524 1524 1524 1524 1524 1525 1525 1525 1525 1526 1526 1526 1526 1526 1526 1527 1526 1526 1527 1526 1525 1525 1524 1523 1522 1520 1519 1517 1515 1513 1512 1510 1510 1509 1508 1506 1505 1505
1451 1452 1454 1457 1459 1461 1464 1467 1470 1473 1476 1478 1480 1482 1485 1488 1489 1491 1493 1494 1496 1497 1499 1500 1502 1504 1505 1507 1507 1507 1509 1510 1511 1513 1514 1517 1519 1520 1522 1523 1524 1524 1524 1524 1522 1522 1523 1524 1523 1523 1524 1524 1525 1525 1525 1526 1526 1526 1526 1526 1526 1525 1526 1525 1525 1526 1525 1524 1524 1523 1522 1521 1520 1518 1516 1514 1512 1511 1510 1509 1509 1508 1507 1506 1505
1449 1451 1453 1456 1458 1461 1463 1466 1469 1472 1475 1477 1480 1482 1484 1486 1488 1489 1491 1492 1494 1495 1497 1499 1501 1502 1504 1505 1506 1507 1508 1509 1510 1512 1514 1517 1518 1519 1521 1523 1524 1524 1524 1523 1522 1522 1523 1523 1523 1523 1524 1524 1525 1525 1525 1526 1526 1526 1526 1526 1526 1525 1525 1524 1524 1524 1524 1523 1523 1522 1522 1521 1519 1518 1516 1514 1513 1511 1510 1509 1509 1508 1506 1505 1504
1448 1451 1453 1455 1457 1460 1463 1466 1469 1472 1474 1477 1479 1481 1483 1485 1487 1488 1489 1491 1492 1494 1496 1499 1500 1502 1503 1504 1505 1506 1507 1508 1510 1512 1514 1516 1517 1518 1520 1522 1523 1523 1524 1524 1522 1522 1522 1523 1523 1523 1524 1524 1525 1525 1525 1526 1526 1526 1526 1526 1526 1525 1525 1524 1524 1523 1523 1522 1522 1521 1521 1520 1519 1518 1517 1515 1513 1511 1510 1509 1509 1508 1506 1505 1504
1448 1450 1452 1454 1457 1459 1462 1466 1469 1472 1474 1476 1479 1480 1482 1484 1486 1487 1489 1491 1493 1495 1497 1498 1500 1501 1503 1503 1504 1505 1507 1508 1509 1511 1513 1514 1516 1518 1519 1521 1522 1523 1524 1524 1523 1522 1522 1522 1522 1523 1524 1524 1525 1525 1525 1526 1526 1526 1526 1526 1526 1525 1525 1524 1523 1523 1522 1521 1521 1520 1520 1520 1519 1518 1517 1515 1514 1512 1510 1509 1509 1508 1507 1506 1505
1448 1450 1452 1454 1456 1458 1462 1465 1468 1471 1473 1476 1478 1480 1482 1484 1485 1487 1489 1491 1493 1495 1496 1498 1500 1501 1502 1502 1503 1505 1506 1507 1508 1510 1511 1513 1515 1517 1519 1520 1522 1523 1524 1524 1524 1523 1522 1522 1522 1523 1524 1524 1525 1525 1525 1526 1526 1526 1527 1526 1526 1525 1525 1524 1523 1522 1522 1521 1520 1520 1519 1519 1519 1518 1516 1515 1514 1512 1511 1509 1509 1508 1507 1506 1505
1448 1450 1451 1453 1455 1458 1461 1464 1467 1470 1472 1474 1477 1479 1481 1483 1485 1487 1489 1492 1493 1495 1496 1498 1499 1501 1501 1502 1503 1504 1505 1506 1507 1508 1511 1513 1515 1517 1519 1521 1522 1523 1524 1524 1524 1523 1522 1522 1523 1524 1524 1524 1524 1524 1524 1525 1526 1526 1526 1526 1526 1525 1524 1524 1523 1522 1521 1520 1520 1519 1519 1519 1519 1518 1516 1515 1514 1512 1511 1509 1509 1508 1508 1507 1506
1448 1449 1451 1452 1455 1457 1460 1463 1466 1468 1470 1473 1475 1477 1480 1482 1484 1487 1489 1492 1494 1495 1497 1498 1499 1501 1501 1502 1502 1503 1504 1505 1506 1507 1510 1512 1514 1517 1518 1520 1522 1523 1523 1524 1523 1523 1522 1522 1523 1523 1523 1523 1524 1524 1524 1525 1525 1526 1526 1525 1525 1525 1524 1524 1523 1522 1522 1521 1520 1519 1519 1519 1519 1518 1517 1515 1514 1513 1511 1509 1509 1508 1508 1508 1507
1448 1449 1450 1452 1454 1457 1459 1462 1465 1467 1468 1471 1473 1476 1479 1481 1484 1487 1490 1493 1494 1495 1497 1498 1499 1500 1501 1501 1501 1502 1503 1503 1504 1506 1509 1511 1514 1516 1518 1519 1521 1522 1522 1523 1523 1522 1522 1523 1522 1522 1523 1524 1524 1525 1525 1525 1525 1526 1526 1526 1525 1525 1524 1524 1523 1522 1522 1520 1520 1519 1519 1519 1519 1518 1517 1516 1514 1513 1511 1510 1509 1508 1507 1506 1506
1448 1449 1450 1452 1454 1456 1459 1461 1463 1465 1467 1469 1472 1474 1477 1481 1484 1487 1489 1492 1493 1494 1496 1497 1498 1499 1500 1500 1500 1501 1502 1503 1504 1506 1508 1511 1514 1515 1517 1519 1520 1520 1521 1521 1521 1521 1522 1522 1521 1522 1523 1524 1524 1525 1525 1525 1525 1526 1526 1526 1525 1525 1525 1525 1524 1523 1522 1521 1520 1520 1519 1519 1519 1518 1517 1516 1514 1513 1512 1510 1509 1508 1506 1505 1505
1448 1449 1451 1452 1454 1456 1458 1460 1462 1464 1466 1468 1471 1473 1476 1479 1482 1484 1487 1489 1490 1492 1493 1495 1497 1498 1498 1498 1498 1500 1501 1502 1504 1506 1508 1511 1514 1515 1517 1518 1519 1520 1520 1520 1520 1520 1521 1521 1520 1521 1523 1524 1524 1524 1524 1525 1525 1526 1526 1526 1526 1525 1525 1525 1524 1523 1523 1522 1521 1521 1520 1520 1519 1518 1517 1516 1515 1513 1512 1510 1509 1507 1506 1505 1504
1447 1449 1451 1453 1454 1457 1458 1459 1461 1462 1465 1467 1470 1472 1474 1476 1478 1480 1482 1484 1486 1489 1491 1493 1494 1496 1496 1496 1496 1498 1499 1500 1502 1505 1508 1511 1513 1514 1516 1517 1518 1519 1519 1520 1519 1520 1521 1521 1520 1521 1523 1523 1524 1524 1524 1524 1525 1525 1526 1526 1526 1526 1525 1524 1524 1523 1523 1523 1522 1522 1521 1521 1520 1519 1518 1516 1515 1514 1513 1511 1510 1508 1507 1506 1505
1446 1448 1450 1452 1454 1456 1457 1458 1460 1462 1464 1467 1469 1471 1472 1473 1476 1477 1478 1481 1484 1486 1489 1491 1492 1493 1494 1494 1494 1495 1497 1498 1500 1503 1506 1509 1511 1512 1514 1516 1517 1518 1518 1519 1519 1518 1519 1520 1520 1521 1523 1523 1524 1524 1524 1524 1524 1524 1525 1525 1525 1525 1525 1524 1524 1524 1524 1524 1523 1523 1522 1521 1521 1520 1518 1517 1516 1515 1514 1512 1510 1509 1508 1506 1506
1445 1447 1449 1451 1453 1455 1456 1458 1460 1462 1464 1465 1467 1469 1470 1472 1474 1475 1476 1478 1481 1483 1486 1488 1490 1492 1492 1492 1493 1494 1495 1496 1498 1501 1504 1507 1509 1511 1513 1514 1516 1517 1518 1519 1518 1517 1518 1519 1520 1521 1522 1523 1523 1524 1524 1524 1524 1525 1525 1525 1525 1525 1525 1524 1524 1525 1525 1525 1525 1524 1524 1523 1522 1521 1520 1519 1517 1516 1514 1513 1511 1510 1509 1507 1506
1445 1447 1449 1451 1453 1455 1456 1459 1460 1462 1463 1465 1467 1469 1470 1472 1473 1474 1475 1475 1477 1480 1483 1486 1487 1489 1490 1491 1491 1492 1494 1496 1498 1500 1503 1505 1508 1510 1511 1513 1515 1517 1518 1518 1518 1517 1517 1518 1520 1521 1522 1522 1523 1523 1523 1524 1524 1524 1525 1525 1525 1525 1525 1525 1525 1525 1526 1526 1525 1525 1525 1524 1523 1522 1521 1520 1518 1516 1515 1513 1512 1510 1509 1508 1507
1445 1447 1449 1451 1453 1454 1456 1458 1460 1461 1462 1464 1466 1467 1468 1470 1471 1472 1473 1474 1475 1477 1479 1482 1484 1487 1488 1490 1490 1491 1493 1495 1497 1500 1502 1505 1507 1509 1510 1512 1514 1516 1517 1517 1517 1516 1516 1517 1519 1521 1521 1522 1522 1523 1523 1524 1524 1524 1525 1525 1525 1525 1525 1525 1525 1526 1526 1526 1525 1525 1524 1524 1523 1522 1520 1519 1518 1517 1515 1514 1512 1511 1510 1508 1508
1446 1447 1448 1449 1451 1453 1455 1457 1459 1460 1461 1463 1464 1465 1467 1468 1469 1471 1472 1474 1475 1475 1475 1479 1483 1485 1487 1489 1489 1489 1490 1493 1496 1499 1502 1504 1506 1507 1509 1511 1513 1515 1516 1517 1516 1516 1516 1518 1520 1520 1521 1521 1522 1523 1523 1523 1524 1524 1525 1525 1525 1525 1525 1525 1526 1526 1526 1526 1525 1525 1524 1524 1523 1522 1520 1519 1518 1517 1516 1514 1513 1512 1511 1510 1509
1445 1446 1447 1448 1450 1452 1454 1456 1458 1459 1460 1462 1463 1465 1466 1468 1469 1471 1472 1474 1475 1474 1474 1477 1481 1483 1485 1487 1487 1487 1488 1491 1494 1497 1500 1503 1505 1506 1508 1510 1512 1514 1516 1516 1516 1517 1518 1519 1520 1520 1521 1521 1522 1522 1523 1523 1524 1524 1525 1525 1525 1525 1525 1526 1527 1527 1526 1526 1526 1525 1525 1524 1523 1521 1520 1519 1519 1518 1516 1515 1514 1513 1512 1511 1510
1445 1445 1447 1449 1450 1452 1454 1456 1457 1458 1460 1461 1463 1464 1466 1467 1469 1471 1472 1473 1474 1474 1474 1476 1479 1482 1484 1485 1486 1486 1488 1491 1493 1496 1499 1502 1504 1505 1507 1508 1511 1513 1515 1516 1517 1518 1519 1520 1520 1520 1520 1521 1521 1522 1522 1523 1524 1524 1524 1524 1524 1524 1525 1526 1526 1526 1526 1526 1526 1525 1525 1524 1523 1522 1521 1520 1519 1518 1516 1515 1514 1513 1512 1512 1511
1444 1445 1446 1449 1451 1452 1453 1455 1456 1458 1459 1461 1462 1464 1465 1467 1469 1470 1471 1471 1472 1473 1475 1476 1478 1481 1483 1485 1487 1487 1488 1491 1494 1495 1497 1500 1503 1505 1506 1507 1509 1512 1513 1515 1516 1517 1519 1520 1520 1520 1520 1521 1521 1522 1523 1523 1524 1524 1524 1523 1524 1524 1525 1525 1525 1525 1525 1525 1525 1525 1525 1524 1523 1522 1521 1520 1519 1518 1517 1516 1514 1513 1512 1512 1512
1443 1444 1446 1448 1449 1451 1452 1453 1454 1456 1458 1459 1461 1463 1464 1466 1467 1469 1470 1470 1471 1472 1474 1476 1478 1480 1481 1484 1486 1487 1488 1490 1492 1494 1497 1500 1503 1506 1507 1507 1508 1511 1513 1514 1515 1517 1519 1519 1519 1519 1520 1521 1521 1522 1523 1523 1524 1524 1523 1523 1524 1525 1525 1525 1525 1525 1525 1525 1525 1525 1524 1524 1523 1523 1522 1520 1519 1518 1517 1516 1515 1514 1513 1512 1512
1442 1444 1445 1447 1448 1449 1451 1452 1453 1454 1456 1458 1460 1461 1463 1465 1466 1468 1469 1471 1472 1473 1474 1475 1477 1478 1481 1483 1486 1487 1488 1490 1492 1496 1499 1501 1504 1506 1508 1508 1509 1510 1512 1513 1515 1516 1518 1519 1519 1519 1520 1520 1521 1522 1523 1523 1523 1523 1523 1524 1525 1525 1526 1525 1525 1524 1524 1525 1525 1524 1524 1523 1523 1522 1521 1520 1519 1518 1517 1516 1515 1514 1513 1513 1512
1441 1443 1444 1445 1447 1448 1449 1451 1452 1453 1455 1457 1458 1460 1462 1464 1466 1467 1469 1470 1472 1474 1475 1476 1476 1478 1480 1482 1485 1489 1492 1492 1494 1497 1499 1501 1504 1507 1508 1509 1509 1510 1511 1513 1514 1516 1517 1518 1519 1519 1520 1520 1521 1521 1522 1523 1523 1523 1524 1525 1525 1525 1526 1525 1524 1524 1524 1524 1524 1524 1523 1523 1522 1521 1520 1519 1518 1518 1517 1516 1515 1514 1514 1513 1512
1440 1441 1442 1444 1446 1447 1448 1450 1451 1452 1454 1455 1457 1459 1461 1463 1465 1467 1468 1470 1472 1474 1475 1476 1477 1479 1481 1482 1484 1489 1493 1494 1495 1496 1498 1500 1504 1506 1508 1509 1509 1509 1511 1513 1514 1515 1516 1517 1518 1519 1520 1521 1521 1522 1523 1524 1524 1524 1524 1524 1524 1525 1525 1525 1524 1524 1524 1524 1523 1523 1523 1522 1521 1520 1520 1519 1518 1518 1517 1516 1515 1514 1514 1513 1512
1439 1440 1442 1444 1445 1446 1447 1448 1449 1451 1453 1454 1456 1458 1459 1461 1463 1466 1468 1470 1472 1473 1475 1476 1478 1480 1483 1484 1486 1489 1491 1493 1494 1496 1498 1501 1504 1506 1507 1508 1509 1510 1512 1513 1513 1515 1516 1517 1518 1519 1521 1521 1522 1523 1523 1523 1524 1524 1524 1524 1524 1524 1524 1524 1524 1524 1524 1523 1523 1523 1522 1522 1521 1520 1519 1519 1518 1518 1517 1516 1515 1514 1513 1512 1511
1439 1440 1442 1443 1444 1446 1447 1447 1449 1450 1451 1453 1455 1456 1458 1460 1462 1464 1466 1469 1471 1473 1475 1477 1479 1481 1484 1486 1488 1489 1490 1492 1494 1496 1499 1502 1504 1506 1507 1507 1509 1510 1512 1513 1513 1514 1516 1518 1519 1520 1521 1521 1521 1522 1523 1523 1524 1524 1524 1524 1524 1524 1524 1524 1523 1523 1523 1523 1523 1522 1522 1521 1520 1519 1519 1518 1518 1517 1517 1516 1515 1514 1513 1512 1511
1440 1441 1442 1443 1444 1445 1446 1447 1448 1449 1450 1452 1453 1455 1457 1459 1460 1462 1464 1467 1471 1474 1476 1479 1481 1483 1485 1487 1488 1489 1490 1492 1495 1497 1500 1503 1505 1506 1506 1507 1509 1511 1512 1513 1513 1514 1516 1518 1519 1520 1520 1520 1521 1521 1522 1523 1523 1523 1524 1524 1524 1523 1523 1524 1523 1523 1523 1523 1523 1522 1521 1521 1520 1519 1518 1518 1517 1517 1516 1516 1515 1513 1512 1512 1510
1440 1441 1442 1443 1444 1445 1446 1447 1448 1449 1450 1451 1453 1454 1456 1458 1460 1462 1465 1467 1471 1475 1478 1480 1482 1484 1485 1487 1488 1489 1491 1493 1495 1498 1501 1503 1505 1505 1506 1507 1509 1511 1512 1513 1513 1514 1516 1517 1518 1519 1520 1520 1520 1521 1522 1522 1522 1523 1523 1524 1524 1523 1523 1523 1523 1523 1523 1523 1522 1521 1521 1520 1519 1519 1518 1518 1517 1517 1516 1515 1514 1513 1512 1511 1510
1441 1441 1442 1443 1444 1445 1446 1447 1448 1449 1450 1451 1453 1455 1457 1459 1461 1463 1466 1468 1471 1473 1476 1479 1481 1483 1485 1487 1488 1490 1491 1494 1496 1499 1502 1504 1505 1506 1507 1507 1509 1511 1512 1512 1513 1514 1516 1517 1518 1519 1519 1519 1520 1520 1521 1521 1522 1522 1522 1523 1523 1523 1523 1522 1522 1522 1522 1522 1522 1521 1520 1520 1519 1519 1518 1518 1517 1516 1516 1515 1514 1512 1511 1510 1509
1441 1441 1442 1443 1444 1445 1446 1447 1448 1450 1451 1452 1453 1455 1457 1459 1461 1464 1466 1468 1470 1473 1475 1478 1480 1482 1484 1486 1488 1490 1491 1494 1496 1499 1501 1503 1505 1506 1507 1508 1510 1511 1512 1512 1513 1515 1516 1517 1518 1518 1519 1519 1520 1520 1521 1521 1521 1521 1522 1522 1522 1522 1523 1523 1522 1522 1522 1522 1521 1521 1520 1520 1519 1519 1518 1517 1517 1516 1515 1514 1513 1512 1511 1510 1508
1441 1442 1443 1443 1444 1445 1446 1447 1449 1450 1452 1453 1455 1456 1458 1460 1462 1464 1467 1469 1471 1473 1475 1478 1480 1482 1483 1485 1488 1489 1491 1493 1496 1498 1500 1502 1504 1506 1507 1508 1510 1511 1512 1512 1513 1515 1516 1517 1517 1518 1518 1519 1520 1520 1521 1520 1520 1521 1521 1522 1522 1522 1522 1522 1522 1522 1522 1521 1521 1521 1520 1520 1519 1518 1517 1517 1516 1515 1514 1513 1512 1511 1510 1509 1508
1442 1443 1443 1444 1445 1445 1446 1448 1449 1451 1453 1455 1456 1458 1459 1461 1463 1465 1468 1470 1472 1474 1476 1478 1480 1482 1484 1485 1487 1489 1491 1493 1496 1497 1499 1502 1504 1506 1507 1508 1509 1511 1512 1513 1514 1515 1516 1517 1517 1517 1518 1519 1519 1520 1520 1521 1521 1521 1521 1521 1521 1522 1522 1522 1522 1521 1521 1521 1520 1520 1519 1519 1518 1517 1516 1516 1515 1514 1513 1512 1511 1510 1509 1508 1508
1443 1443 1444 1445 1446 1447 1448 1449 1451 1453 1454 1456 1458 1459 1460 1462 1464 1466 1468 1470 1472 1474 1476 1478 1480 1482 1484 1486 1487 1489 1491 1494 1496 1498 1500 1502 1504 1506 1507 1508 1510 1511 1512 1513 1514 1515 1516 1516 1517 1517 1518 1519 1519 1520 1520 1520 1521 1521 1521 1521 1522 1522 1522 1522 1521 1521 1520 1520 1520 1519 1519 1518 1517 1516 1516 1515 1514 1514 1513 1512 1511 1510 1509 1508 1507
1443 1444 1445 1446 1448 1449 1450 1451 1453 1454 1456 1458 1459 1461 1462 1464 1465 1467 1469 1471 1472 1474 1477 1479 1481 1483 1485 1487 1489 1490 1492 1494 1497 1499 1501 1502 1504 1506 1507 1508 1510 1511 1512 1513 1514 1515 1516 1516 1516 1517 1517 1518 1519 1519 1520 1520 1520 1520 1521 1521 1521 1521 1521 1520 1519 1519 1519 1519 1518 1518 1517 1517 1516 1515 1515 1514 1514 1513 1512 1511 1510 1509 1508 1507 1506
1444 1445 1446 1448 1449 1451 1452 1454 1455 1456 1458 1460 1461 1463 1464 1465 1467 1468 1470 1471 1473 1475 1477 1480 1482 1484 1487 1489 1491 1492 1494 1496 1498 1500 1502 1503 1504 1506 1507 1508 1510 1511 1512 1513 1513 1514 1515 1515 1516 1516 1517 1518 1518 1519 1519 1519 1519 1519 1519 1519 1519 1519 1519 1519 1519 1518 1518 1518 1517 1517 1516 1516 1515 1514 1514 1513 1512 1511 1510 1510 1509 1507 1506 1505 1504
1445 1446 1447 1449 1451 1453 1455 1456 1457 1459 1460 1462 1463 1464 1465 1466 1468 1469 1471 1473 1475 1477 1479 1481 1483 1486 1488 1490 1492 1494 1496 1498 1499 1501 1502 1504 1505 1506 1507 1508 1509 1510 1511 1511 1512 1514 1515 1515 1515 1516 1517 1517 1518 1518 1518 1518 1519 1519 1519 1519 1518 1519 1519 1519 1518 1518 1517 1517 1517 1516 1515 1515 1514 1513 1512 1511 1510 1509 1508 1507 1506 1505 1504 1503 1501
1446 1448 1449 1451 1453 1455 1457 1458 1460 1461 1462 1463 1464 1465 1466 1468 1469 1471 1472 1474 1476 1478 1480 1483 1485 1487 1489 1491 1494 1496 1497 1499 1500 1502 1503 1504 1505 1505 1506 1507 1508 1510 1510 1511 1512 1514 1514 1515 1515 1516 1516 1516 1517 1517 1518 1518 1519 1519 1519 1518 1518 1518 1518 1518 1517 1517 1516 1516 1515 1515 1514 1513 1512 1511 1510 1509 1508 1507 1506 1505 1503 1502 1501 1500 1499
1448 1450 1451 1452 1454 1456 1458 1460 1461 1463 1464 1465 1466 1467 1468 1470 1471 1473 1474 1476 1478 1480 1482 1484 1486 1488 1490 1493 1495 1496 1497 1499 1500 1502 1503 1504 1504 1505 1506 1507 1509 1510 1511 1512 1513 1514 1514 1515 1515 1516 1516 1517 1517 1518 1518 1518 1519 1519 1518 1518 1518 1518 1517 1517 1516 1516 1515 1515 1514 1513 1512 1512 1510 1509 1508 1507 1506 1505 1503 1502 1501 1500 1499 1498 1496
1450 1451 1453 1454 1456 1458 1459 1461 1462 1463 1464 1466 1467 1468 1470 1471 1473 1474 1476 1478 1479 1481 1484 1486 1488 1490 1492 1494 1495 1496 1497 1499 1500 1501 1502 1503 1504 1505 1507 1508 1509 1511 1512 1513 1513 1514 1514 1515 1515 1516 1517 1517 1518 1518 1518 1518 1518 1518 1518 1518 1517 1517 1517 1516 1516 1515 1514 1513 1512 1511 1510 1509 1508 1507 1506 1505 1504 1503 1501 1500 1499 1498 1496 1495 1494
1451 1452 1454 1455 1457 1458 1460 1461 1463 1464 1465 1467 1468 1470 1472 1474 1475 1476 1478 1479 1481 1483 1485 1487 1489 1491 1493 1494 1495 1496 1498 1499 1500 1501 1503 1504 1505 1506 1507 1509 1510 1511 1512 1513 1514 1514 1514 1515 1515 1516 1517 1517 1518 1518 1518 1518 1518 1518 1518 1517 1517 1517 1516 1515 1515 1514 1513 1512 1511 1510 1508 1507 1507 1505 1504 1503 1502 1501 1499 1498 1496 1495 1494 1492 1491
1452 1453 1454 1456 1458 1459 1461 1462 1464 1465 1467 1469 1470 1472 1474 1475 1477 1478 1479 1481 1483 1485 1487 1489 1490 1492 1493 1495 1496 1497 1499 1500 1501 1502 1503 1504 1506 1507 1508 1509 1511 1512 1512 1513 1514 1514 1514 1515 1516 1516 1517 1517 1518 1518 1518 1518 1518 1517 1517 1517 1516 1515 1515 1514 1513 1512 1511 1510 1509 1508 1507 1506 1505 1503 1502 1501 1499 1498 1496 1495 1494 1492 1491 1490 1488
1454 1455 1456 1458 1459 1460 1462 1463 1464 1466 1468 1470 1471 1473 1475 1477 1478 1480 1481 1483 1484 1486 1488 1489 1491 1492 1494 1495 1497 1498 1500 1501 1501 1502 1504 1505 1506 1508 1509 1510 1511 1512 1513 1513 1514 1514 1515 1515 1516 1516 1517 1517 1517 1518 1517 1517 1517 1517 1516 1516 1515 1514 1513 1513 1512 1511 1510 1509 1508 1507 1505 1504 1503 1501 1500 1499 1497 1495 1494 1493 1491 1490 1489 1487 1485
1456 1457 1458 1459 1460 1461 1462 1464 1465 1467 1469 1471 1472 1474 1476 1477 1479 1481 1482 1483 1485 1486 1488 1490 1491 1493 1494 1496 1498 1499 1500 1500 1501 1503 1504 1506 1507 1508 1510 1511 1512 1512 1513 1514 1514 1514 1515 1515 1516 1516 1517 1517 1517 1517 1517 1517 1516 1516 1515 1514 1514 1513 1512 1511 1510 1509 1508 1507 1506 1505 1503 1502 1501 1499 1498 1497 1495 1493 1492 1491 1489 1488 1486 1485 1484
1458 1458 1460 1460 1461 1462 1464 1465 1466 1468 1469 1471 1473 1474 1476 1478 1480 1481 1483 1484 1485 1487 1489 1490 1492 1494 1496 1497 1498 1499 1499 1500 1502 1504 1505 1507 1508 1509 1510 1511 1512 1513 1513 1514 1514 1514 1515 1515 1516 1516 1516 1516 1516 1516 1516 1516 1515 1514 1514 1513 1512 1512 1511 1510 1509 1508 1506 1505 1504 1503 1501 1500 1498 1497 1495 1494 1493 1491 1490 1489 1487 1486 1485 1483 1482